Starlink 5151

operational
NORAD ID: 54066 Int'l Des: 2022-136 Owner: SPXS Country: US Constellation: starlink
LEOCIRCULAR

About Starlink 5151

Description loading...

Live Position

Loading 3D Globe...

Upcoming Passes

Altitude History

Altitude vs Time

uPlot chart will show altitude changes over time

Two-Line Element Set

1 54066U 22136R 25303.05199335 .00000455 00000-0 46655-4 0 9997
2 54066 53.2151 210.4759 0001418 88.7025 271.4130 15.08837961167125
Epoch: Oct 30, 2025 • Age: 16 hours

Current Status

Altitude 542.4 km
Velocity 7.60 km/s
Sub-Earth Point 39.26°N, 55.01°W
Launch Date Oct 20, 2022
Age 3 years
Type internet

Technical Details

Classification Payload
Mass 305.00 kg
Dry Mass 290.00 kg
Total Mass 305.00 kg
Length 0.20 m
Diameter 2.80 m
Span 9.00 m
Shape Box + pan
Manufacturer SPXS
Bus Type Starlink
Phase Status In Orbit
Owner/State SPXS/US

Large Constellations

Loading constellations...